Morgantown, WV

1:29 AM EDT on August 21, 2019 (GMT -0400)
Morgantown Municipal-Hart

Weather History for KMGW - July, 2019

Change the Weather History Date:

Sunday, July 21, 2019

  Actual Average Record
Temperature  
Mean Temperature 84 °F 73 °F  
Max Temperature 93 °F 83 °F 102 °F (1934)
Min Temperature 74 °F 63 °F 46 °F (1965)
Degree Days  
Heating Degree Days 0 0  
Month to date heating degree days 0 0  
Since 1 June heating degree days 23 31  
Since 1 July heating degree days 0 0  
Cooling Degree Days 19 8  
Month to date cooling degree days 268 168  
Year to date cooling degree days 590 397  
Since 1 June cooling degree days 433 330  
Growing Degree Days 34 (Base 50)    
Moisture  
Dew Point 71 °F    
Average Humidity 70    
Maximum Humidity 94    
Minimum Humidity 46    
Precipitation  
Precipitation 0.00 in 0.15 in 1.77 in (1939)
Month to date precipitation 4.42 3.23  
Year to date precipitation 28.75 24.53  
Sea Level Pressure  
Sea Level Pressure 29.94 in    
Wind  
Wind Speed 5 mph (SSW)    
Max Wind Speed 14 mph    
Max Gust Speed 24 mph    
Visibility 10 miles    
Events Thunderstorm    
T = Trace of Precipitation, MM = Missing Value Source: NWS Daily Summary

Daily Weather History Graph

Daily Weather History Graph

Search for Another Location

Airport or City:

Astronomy

Jul. 21, 2019 Rise Set
Actual Time 6:09 AM EDT 8:42 PM EDT
Civil Twilight 5:37 AM EDT 9:13 PM EDT
Nautical Twilight 4:59 AM EDT 9:52 PM EDT
Astronomical Twilight 4:15 AM EDT 10:35 PM EDT
Moon 11:37 PM EDT 10:27 AM EDT
Length of Visible Light 15h 35m
Length of Day
14h 33m
Waning Gibbous, 80% of the Moon is Illuminated
Jul 21
Waning Gibbous
Jul 24
Last Quarter
Jul 31
New
Aug 7
First Quarter
Aug 15
Full

Hourly Weather History & Observations

Time (EDT) Temp. Heat Index Dew Point Humidity Pressure Visibility Wind Dir Wind Speed Gust Speed Precip Events Conditions
12:53 AM 77.0 °F - 73.0 °F 88% 29.96 in 10.0 mi Calm Calm - N/A   Clear
1:53 AM 75.0 °F - 72.0 °F 90% 29.94 in 9.0 mi SSW 3.5 mph - N/A   Clear
2:53 AM 75.9 °F - 72.0 °F 87% 29.93 in 9.0 mi South 4.6 mph - N/A   Clear
3:53 AM 77.0 °F - 72.0 °F 84% 29.92 in 9.0 mi SSW 3.5 mph - N/A   Clear
4:53 AM 75.9 °F - 72.0 °F 87% 29.92 in 9.0 mi Calm Calm - N/A   Clear
5:53 AM 75.0 °F - 72.0 °F 90% 29.94 in 8.0 mi South 4.6 mph - N/A   Mostly Cloudy
6:53 AM 75.0 °F - 73.0 °F 94% 29.97 in 6.0 mi Calm Calm - N/A   Mostly Cloudy
7:53 AM 77.0 °F - 73.0 °F 88% 29.97 in 7.0 mi SSW 4.6 mph - N/A   Scattered Clouds
8:53 AM 80.1 °F 84.5 °F 73.9 °F 81% 29.97 in 10.0 mi South 4.6 mph - N/A   Clear
9:53 AM 84.0 °F 91.2 °F 73.9 °F 72% 29.97 in 10.0 mi Variable 5.8 mph - N/A   Clear
10:53 AM 86.0 °F 95.1 °F 75.0 °F 70% 29.96 in 10.0 mi Variable 4.6 mph - N/A   Scattered Clouds
11:53 AM 87.1 °F 95.4 °F 73.9 °F 65% 29.96 in 10.0 mi Variable 6.9 mph - N/A   Scattered Clouds
12:53 PM 89.1 °F 96.0 °F 72.0 °F 57% 29.95 in 10.0 mi Variable 5.8 mph - N/A   Scattered Clouds
1:53 PM 91.0 °F 96.6 °F 70.0 °F 50% 29.93 in 10.0 mi SW 11.5 mph - N/A   Mostly Cloudy
2:53 PM 93.0 °F 97.9 °F 69.1 °F 45% 29.91 in 10.0 mi SW 8.1 mph - N/A   Mostly Cloudy
3:53 PM 91.9 °F 97.4 °F 70.0 °F 48% 29.91 in 10.0 mi Variable 6.9 mph 16.1 mph N/A   Scattered Clouds
4:53 PM 93.0 °F 100.1 °F 71.1 °F 49% 29.89 in 10.0 mi WSW 8.1 mph 17.3 mph N/A   Scattered Clouds
5:53 PM 89.1 °F 97.0 °F 73.0 °F 59% 29.90 in 10.0 mi South 13.8 mph 24.2 mph N/A   Scattered Clouds
6:53 PM 84.0 °F 88.4 °F 70.0 °F 63% 29.91 in 10.0 mi SSW 11.5 mph 19.6 mph N/A   Clear
7:53 PM 79.0 °F - 66.9 °F 66% 29.94 in 10.0 mi South 8.1 mph - N/A Thunderstorm Partly Cloudy
8:23 PM 78.1 °F - 68.0 °F 71% 29.99 in 10.0 mi North 8.1 mph - N/A   Mostly Cloudy
8:53 PM 78.1 °F - 68.0 °F 71% 29.95 in 10.0 mi South 3.5 mph - N/A   Overcast
9:53 PM 77.0 °F - 68.0 °F 74% 29.94 in 10.0 mi SW 3.5 mph - N/A   Partly Cloudy
10:53 PM 75.9 °F - 68.0 °F 76% 29.93 in 10.0 mi Calm Calm - N/A   Clear
11:53 PM 75.0 °F - 68.0 °F 79% 29.94 in 10.0 mi South 3.5 mph - N/A   Clear